DW0275 Weather Reports


Display with metric or nautical units.
time (UTC)temp
F
wind
direction
speed
MPH
gust
MPH
rain 1hr
in
rain 24hr
in
rain mn
in
humidity
%
barometer
mb
20260906200830 95 127 0.0 1.0 0.00 0.00 0.00 70 1012.6
20260906200346 95 9 0.0 2.0 0.00 0.00 0.00 73 1012.6
20260906200050 94 163 0.0 3.0 0.00 0.00 0.00 73 1012.7
20260906195821 94 155 0.0 3.0 0.00 0.00 0.00 73 1012.7
20260906195339 94 356 1.0 3.0 0.00 0.00 0.00 72 1012.8
20260906194816 94 150 0.0 3.0 0.00 0.00 0.00 73 1012.9
20260906194517 93 126 0.0 3.0 0.00 0.00 0.00 71 1012.8
20260906194333 94 288 1.0 2.0 0.00 0.00 0.00 74 1012.9
20260906193830 93 255 0.0 2.0 0.00 0.00 0.00 74 1012.8
20260906193327 93 45 0.0 3.0 0.00 0.00 0.00 74 1012.8
20260906193101 93 50 0.0 4.0 0.00 0.00 0.00 72 1012.7
20260906192825 94 326 0.0 4.0 0.00 0.00 0.00 73 1012.9
20260906192322 94 356 1.0 4.0 0.00 0.00 0.00 72 1013.0
20260906191819 93 30 1.0 4.0 0.00 0.00 0.00 73 1012.8
20260906191539 93 30 0.0 4.0 0.00 0.00 0.00 71 1012.7
20260906191317 94 16 2.0 4.0 0.00 0.00 0.00 71 1012.9
20260906190832 94 5 1.0 3.0 0.00 0.00 0.00 72 1012.9
20260906190351 94 349 0.0 2.0 0.00 0.00 0.00 72 1012.9
20260906190053 93 12 0.0 5.0 0.00 0.00 0.00 75 1012.9
20260906185828 94 10 1.0 5.0 0.00 0.00 0.00 72 1013.0
20260906185325 94 120 0.0 3.0 0.00 0.00 0.00 73 1013.1
20260906184822 94 9 1.0 5.0 0.00 0.00 0.00 74 1013.2
20260906184544 93 23 0.0 5.0 0.00 0.00 0.00 73 1013.1
20260906184320 94 322 1.0 5.0 0.00 0.00 0.00 73 1013.3
20260906183817 94 21 2.0 4.0 0.00 0.00 0.00 71 1013.4
20260906183332 94 65 0.0 3.0 0.00 0.00 0.00 75 1013.6
20260906183026 93 13 0.0 0.0 0.00 0.00 0.00 74 1013.5
20260906182827 93 301 0.0 0.0 0.00 0.00 0.00 75 1013.7
20260906182324 94 274 0.0 0.0 0.00 0.00 0.00 74 1013.7
20260906181842 93 290 0.0 0.0 0.00 0.00 0.00 75 1013.8
20260906181605 92 290 0.0 0.0 0.00 0.00 0.00 74 1013.6
20260906181319 92 131 0.0 0.0 0.00 0.00 0.00 76 1013.8
20260906180837 92 48 0.0 3.0 0.00 0.00 0.00 75 1013.9
20260906180333 92 31 0.0 3.0 0.00 0.00 0.00 76 1013.9
20260906180018 91 28 0.0 2.0 0.00 0.00 0.00 75 1013.7
20260906175830 92 275 0.0 4.0 0.00 0.00 0.00 76 1013.9
20260906175329 92 12 0.0 6.0 0.00 0.00 0.00 75 1013.9
20260906174826 93 302 1.0 6.0 0.00 0.00 0.00 74 1013.8
20260906174558 92 336 1.0 3.0 0.00 0.00 0.00 73 1013.7
20260906174321 93 153 0.0 2.0 0.00 0.00 0.00 77 1014.0
20260906173819 93 155 0.0 2.0 0.00 0.00 0.00 75 1014.0
20260906173317 93 282 1.0 2.0 0.00 0.00 0.00 76 1013.9
20260906173045 92 277 0.0 2.0 0.00 0.00 0.00 76 1013.9
20260906172815 92 104 0.0 1.0 0.00 0.00 0.00 76 1013.9
20260906172333 93 57 0.0 2.0 0.00 0.00 0.00 74 1014.1
20260906171830 93 36 1.0 2.0 0.00 0.00 0.00 75 1014.1
20260906171531 92 53 0.0 2.0 0.00 0.00 0.00 76 1013.9
20260906171328 93 312 0.0 2.0 0.00 0.00 0.00 77 1014.0
20260906170824 92 139 1.0 4.0 0.00 0.00 0.00 77 1014.1
20260906170322 92 105 0.0 4.0 0.00 0.00 0.00 77 1014.0
20260906170017 91 41 1.0 3.0 0.00 0.00 0.00 76 1014.0
20260906165835 92 297 1.0 3.0 0.00 0.00 0.00 76 1014.1
20260906165353 92 11 0.0 4.0 0.00 0.00 0.00 78 1014.0
20260906164829 91 28 1.0 4.0 0.00 0.00 0.00 78 1013.9
20260906164540 91 108 0.0 3.0 0.00 0.00 0.00 78 1013.9
20260906164345 91 307 0.0 3.0 0.00 0.00 0.00 77 1014.0
20260906163842 91 40 1.0 5.0 0.00 0.00 0.00 79 1014.1
20260906163318 91 285 1.0 5.0 0.00 0.00 0.00 79 1014.2
20260906163041 90 310 0.0 3.0 0.00 0.00 0.00 79 1014.1
20260906162816 91 17 1.0 4.0 0.00 0.00 0.00 79 1014.3
20260906162331 90 88 0.0 5.0 0.00 0.00 0.00 79 1014.2
20260906161828 90 346 0.0 4.0 0.00 0.00 0.00 79 1014.3
20260906161521 89 25 1.0 4.0 0.00 0.00 0.00 79 1014.4
20260906161325 90 3 1.0 4.0 0.00 0.00 0.00 79 1014.5
20260906160823 90 35 1.0 4.0 0.00 0.00 0.00 80 1014.5
20260906160321 89 122 0.0 3.0 0.00 0.00 0.00 81 1014.6
20260906160006 89 305 1.0 5.0 0.00 0.00 0.00 80 1014.5
20260906155819 89 32 1.0 5.0 0.00 0.00 0.00 80 1014.6
20260906155317 89 343 3.0 5.0 0.00 0.00 0.00 79 1014.6
20260906154834 89 38 1.0 4.0 0.00 0.00 0.00 80 1014.7
20260906154554 89 305 0.0 3.0 0.00 0.00 0.00 80 1014.6
20260906154331 89 268 0.0 3.0 0.00 0.00 0.00 80 1014.8
20260906153828 89 295 0.0 4.0 0.00 0.00 0.00 80 1014.9
20260906153325 89 287 1.0 5.0 0.00 0.00 0.00 80 1014.9
20260906153044 88 49 1.0 5.0 0.00 0.00 0.00 80 1014.8
20260906152823 89 6 2.0 5.0 0.00 0.00 0.00 80 1015.0
20260906151817 88 56 0.0 5.0 0.00 0.00 0.00 82 1015.0
20260906151531 88 25 2.0 5.0 0.00 0.00 0.00 81 1014.9
20260906151315 88 105 1.0 5.0 0.00 0.00 0.00 82 1015.1
20260906150833 88 46 2.0 4.0 0.00 0.00 0.00 81 1015.2
20260906150330 88 316 1.0 4.0 0.00 0.00 0.00 82 1015.0
20260906150018 88 27 2.0 6.0 0.00 0.00 0.00 81 1015.1
20260906145829 88 337 2.0 6.0 0.00 0.00 0.00 81 1015.2
20260906145345 88 245 1.0 6.0 0.00 0.00 0.00 81 1015.1
20260906144840 89 278 0.0 2.0 0.00 0.00 0.00 82 1015.2
20260906144517 88 332 0.0 2.0 0.00 0.00 0.00 82 1015.1
20260906144316 88 4 0.0 2.0 0.00 0.00 0.00 82 1015.2
20260906143831 88 266 0.0 3.0 0.00 0.00 0.00 83 1015.1
20260906143329 87 282 1.0 3.0 0.00 0.00 0.00 82 1015.1
20260906143110 87 20 0.0 3.0 0.00 0.00 0.00 82 1015.1
20260906142826 87 302 1.0 2.0 0.00 0.00 0.00 82 1015.1
20260906142324 87 8 1.0 3.0 0.00 0.00 0.00 83 1015.1
20260906141820 87 30 1.0 3.0 0.00 0.00 0.00 82 1015.1
20260906141555 87 274 0.0 0.0 0.00 0.00 0.00 83 1015.1
20260906141337 87 274 0.0 0.0 0.00 0.00 0.00 83 1015.0
20260906140832 87 265 0.0 0.0 0.00 0.00 0.00 84 1015.1
20260906140348 86 8 0.0 0.0 0.00 0.00 0.00 85 1015.0
20260906140048 85 17 0.0 1.0 0.00 0.00 0.00 85 1015.0
20260906135825 85 17 0.0 1.0 0.00 0.00 0.00 85 1015.0
20260906135323 84 39 0.0 1.0 0.00 0.00 0.00 85 1015.0
20260906134821 84 300 0.0 2.0 0.00 0.00 0.00 86 1015.0
20260906134536 83 300 0.0 2.0 0.00 0.00 0.00 86 1014.9
20260906133830 83 7 0.0 1.0 0.00 0.00 0.00 85 1015.0
20260906133347 83 327 0.0 0.0 0.00 0.00 0.00 85 1015.0
20260906133010 83 327 0.0 1.0 0.00 0.00 0.00 86 1015.0
20260906132822 83 328 0.0 1.0 0.00 0.00 0.00 85 1015.0
20260906132339 83 288 0.0 1.0 0.00 0.00 0.00 85 1014.9
20260906131856 83 288 0.0 1.0 0.00 0.00 0.00 86 1015.0
20260906131534 83 288 0.0 1.0 0.00 0.00 0.00 85 1014.8
20260906131354 83 20 0.0 0.0 0.00 0.00 0.00 85 1014.9
20260906130830 83 20 0.0 0.0 0.00 0.00 0.00 85 1014.8
20260906130326 83 20 0.0 1.0 0.00 0.00 0.00 85 1014.8
20260906130027 83 20 0.0 1.0 0.00 0.00 0.00 85 1014.7
20260906125824 83 20 0.0 1.0 0.00 0.00 0.00 84 1014.7
20260906125319 84 2 0.0 3.0 0.00 0.00 0.00 84 1014.8
20260906124816 84 79 0.0 0.0 0.00 0.00 0.00 85 1014.7
20260906124516 84 86 0.0 0.0 0.00 0.00 0.00 86 1014.7
20260906124334 84 86 0.0 0.0 0.00 0.00 0.00 87 1014.7
20260906123830 83 86 0.0 0.0 0.00 0.00 0.00 88 1014.7
20260906123327 82 129 0.0 0.0 0.00 0.00 0.00 90 1014.7
20260906123100 81 129 0.0 0.0 0.00 0.00 0.00 90 1014.7
20260906123002 81 129 0.0 0.0 0.00 0.00 0.00 90 1014.6
20260906122823 81 129 0.0 0.0 0.00 0.00 0.00 90 1014.8
20260906122319 80 129 0.0 0.0 0.00 0.00 0.00 90 1014.7
20260906121827 80 129 0.0 0.0 0.00 0.00 0.00 90 1014.5
20260906121543 80 129 0.0 0.0 0.00 0.00 0.00 90 1014.4
20260906121325 80 129 0.0 1.0 0.00 0.00 0.00 91 1014.5
20260906120823 80 129 0.0 1.0 0.00 0.00 0.00 91 1014.4
20260906120320 81 129 0.0 0.0 0.00 0.00 0.00 93 1014.3
20260906120020 80 129 0.0 0.0 0.00 0.00 0.00 93 1014.2
20260906115836 80 129 0.0 0.0 0.00 0.00 0.00 93 1014.3
20260906115332 79 129 0.0 0.0 0.00 0.00 0.00 93 1014.2
20260906114827 79 129 0.0 0.0 0.00 0.00 0.00 94 1014.1
20260906114554 78 129 0.0 0.0 0.00 0.00 0.00 93 1014.0
20260906114324 78 129 0.0 0.0 0.00 0.00 0.00 94 1014.1
20260906113822 78 129 0.0 0.0 0.00 0.00 0.00 94 1014.0
20260906113339 78 129 0.0 0.0 0.00 0.00 0.00 94 1014.0
20260906113010 77 129 0.0 0.0 0.00 0.00 0.00 94 1013.9
20260906112829 78 129 0.0 0.0 0.00 0.00 0.00 94 1013.9
20260906112346 77 129 0.0 0.0 0.00 0.00 0.00 94 1013.8
20260906111821 77 129 0.0 0.0 0.00 0.00 0.00 94 1013.7
20260906111538 76 129 0.0 0.0 0.00 0.00 0.00 94 1013.5
20260906111318 77 129 0.0 0.0 0.00 0.00 0.00 94 1013.5
20260906110817 76 129 0.0 0.0 0.00 0.00 0.00 94 1013.5
20260906110316 76 129 0.0 0.0 0.00 0.00 0.00 94 1013.5
20260906110016 76 129 0.0 0.0 0.00 0.00 0.00 94 1013.4
20260906105831 76 129 0.0 0.0 0.00 0.00 0.00 94 1013.4
20260906105328 76 129 0.0 0.0 0.00 0.00 0.00 94 1013.2
20260906104827 76 129 0.0 0.0 0.00 0.00 0.00 94 1013.3
20260906104604 76 129 0.0 0.0 0.00 0.00 0.00 94 1013.1
20260906104502 76 129 0.0 0.0 0.00 0.00 0.00 94 1013.1
20260906104323 76 129 0.0 0.0 0.00 0.00 0.00 94 1013.1
20260906103820 76 129 0.0 0.0 0.00 0.00 0.00 94 1012.9
20260906103338 76 129 0.0 0.0 0.00 0.00 0.00 94 1012.8
20260906103020 76 129 0.0 0.0 0.00 0.00 0.00 94 1012.6
20260906102815 76 129 0.0 0.0 0.00 0.00 0.00 94 1012.7
20260906102334 76 129 0.0 0.0 0.00 0.00 0.00 94 1012.8
20260906101830 76 129 0.0 0.0 0.00 0.00 0.00 94 1012.7
20260906101506 76 129 0.0 0.0 0.00 0.00 0.00 94 1012.7
20260906101347 76 129 0.0 0.0 0.00 0.00 0.00 94 1012.7
20260906100823 76 129 0.0 0.0 0.00 0.00 0.00 93 1012.6
20260906100321 76 129 0.0 0.0 0.00 0.00 0.00 93 1012.5
20260906100029 75 129 0.0 0.0 0.00 0.00 0.00 93 1012.3
20260906095818 76 129 0.0 0.0 0.00 0.00 0.00 93 1012.2
20260906095337 76 129 0.0 0.0 0.00 0.00 0.00 93 1012.2
20260906094853 76 129 0.0 0.0 0.00 0.00 0.00 93 1012.3
20260906094601 75 129 0.0 0.0 0.00 0.00 0.00 93 1012.1
20260906094328 76 129 0.0 0.0 0.00 0.00 0.00 93 1012.2
20260906093826 76 129 0.0 0.0 0.00 0.00 0.00 93 1012.2
20260906093324 76 129 0.0 0.0 0.00 0.00 0.00 93 1012.3
20260906093051 75 129 0.0 0.0 0.00 0.00 0.00 93 1012.1
20260906092822 76 129 0.0 0.0 0.00 0.00 0.00 93 1012.2
20260906092340 76 129 0.0 0.0 0.00 0.00 0.00 93 1012.3
20260906091856 76 129 0.0 0.0 0.00 0.00 0.00 93 1012.3
20260906091559 75 129 0.0 0.0 0.00 0.00 0.00 93 1012.1
20260906091354 76 129 0.0 0.0 0.00 0.00 0.00 93 1012.2
20260906090830 76 129 0.0 0.0 0.00 0.00 0.00 93 1012.4
20260906090327 76 129 0.0 0.0 0.00 0.00 0.00 93 1012.4
20260906090024 76 129 0.0 0.0 0.00 0.00 0.00 93 1012.2
20260906085824 76 129 0.0 0.0 0.00 0.00 0.00 93 1012.4
20260906085322 76 129 0.0 0.0 0.00 0.00 0.00 93 1012.4
20260906084840 76 129 0.0 0.0 0.00 0.00 0.00 93 1012.4
20260906084556 75 129 0.0 0.0 0.00 0.00 0.00 92 1012.4
20260906084354 76 129 0.0 0.0 0.00 0.00 0.00 92 1012.6
20260906083824 76 129 0.0 0.0 0.00 0.00 0.00 92 1012.7
20260906083340 76 129 0.0 0.0 0.00 0.00 0.00 92 1012.8
20260906083047 76 129 0.0 0.0 0.00 0.00 0.00 93 1012.7
20260906082331 76 129 0.0 0.0 0.00 0.00 0.00 93 1012.7
20260906081828 76 129 0.0 0.0 0.00 0.00 0.00 93 1012.6
20260906081538 76 129 0.0 0.0 0.00 0.00 0.00 93 1012.5
20260906081345 76 129 0.0 0.0 0.00 0.00 0.00 92 1012.6
20260906080822 76 129 0.0 0.0 0.00 0.00 0.00 92 1012.6
20260906080318 76 129 0.0 1.0 0.00 0.00 0.00 93 1012.6
20260906080009 76 129 0.0 1.0 0.00 0.00 0.00 93 1012.5
20260906075815 76 129 0.0 1.0 0.00 0.00 0.00 92 1012.7
20260906075332 76 129 0.0 1.0 0.00 0.00 0.00 92 1012.7
20260906074830 76 129 0.0 1.0 0.00 0.00 0.00 93 1012.5
20260906074554 76 129 0.0 1.0 0.00 0.00 0.00 93 1012.4
20260906074328 76 129 0.0 1.0 0.00 0.00 0.00 93 1012.5
20260906073824 76 129 0.0 1.0 0.00 0.00 0.00 93 1012.5
20260906073323 76 129 0.0 0.0 0.00 0.00 0.00 92 1012.5
20260906073038 76 129 0.0 0.0 0.00 0.00 0.00 92 1012.4
20260906072840 76 129 0.0 0.0 0.00 0.00 0.00 92 1012.4
20260906072337 76 129 0.0 0.0 0.00 0.00 0.00 92 1012.6
20260906071852 76 129 0.0 0.0 0.00 0.00 0.00 92 1012.6
20260906071537 76 129 0.0 0.0 0.00 0.00 0.00 92 1012.5
20260906071327 76 129 0.0 0.0 0.00 0.00 0.00 92 1012.6
20260906070826 76 129 0.0 0.0 0.00 0.00 0.00 92 1012.5
20260906070322 76 129 0.0 0.0 0.00 0.00 0.00 92 1012.6
20260906070021 76 129 0.0 0.0 0.00 0.01 0.00 92 1012.6
20260906065818 77 129 0.0 0.0 0.00 0.01 0.00 92 1012.7
20260906065316 77 129 0.0 1.0 0.00 0.01 0.00 92 1012.7
20260906064831 77 129 0.0 1.0 0.00 0.01 0.00 92 1012.8
20260906064547 76 129 0.0 1.0 0.00 0.01 0.00 92 1012.8
20260906064328 77 129 0.0 1.0 0.00 0.01 0.00 92 1012.9
20260906063823 77 350 0.0 0.0 0.00 0.01 0.00 91 1013.1
20260906063320 77 350 0.0 0.0 0.00 0.01 0.00 91 1013.3
20260906063035 76 350 0.0 0.0 0.00 0.01 0.00 91 1013.2
20260906062815 77 350 0.0 0.0 0.00 0.01 0.00 91 1013.3
20260906062332 77 350 0.0 0.0 0.00 0.01 0.00 91 1013.2
20260906061829 77 350 0.0 1.0 0.00 0.01 0.00 91 1013.2
20260906061516 76 350 0.0 3.0 0.00 0.01 0.00 91 1013.2
20260906061325 77 350 0.0 3.0 0.00 0.01 0.00 91 1013.3
20260906060819 77 350 0.0 3.0 0.00 0.01 0.00 91 1013.7
20260906060317 77 9 0.0 2.0 0.00 0.01 0.00 91 1013.7
20260906060003 76 51 0.0 0.0 0.00 0.01 0.00 91 1013.7
20260906055829 77 124 0.0 0.0 0.00 0.01 0.00 91 1013.9
20260906055326 77 124 0.0 0.0 0.00 0.01 0.00 91 1013.8
20260906054824 77 124 0.0 0.0 0.00 0.01 0.00 91 1013.8
20260906054551 77 124 0.0 1.0 0.00 0.01 0.00 91 1013.7
20260906054321 77 124 0.0 1.0 0.00 0.01 0.00 91 1013.9
20260906053839 77 124 1.0 2.0 0.00 0.01 0.00 91 1014.0
20260906053334 77 120 0.0 2.0 0.00 0.01 0.00 91 1014.1
20260906053015 76 69 0.0 2.0 0.00 0.01 0.00 91 1014.1
20260906052852 77 20 1.0 1.0 0.00 0.01 0.00 91 1014.1
20260906052327 77 360 0.0 1.0 0.00 0.01 0.00 91 1014.2
20260906051824 77 360 0.0 2.0 0.00 0.01 0.00 90 1014.4
20260906051550 76 360 0.0 4.0 0.00 0.01 0.00 90 1014.3
20260906051322 77 360 1.0 4.0 0.00 0.01 0.00 90 1014.6
20260906050821 77 11 1.0 4.0 0.00 0.01 0.00 90 1014.7
20260906050320 77 341 2.0 4.0 0.00 0.01 0.00 90 1014.7
20260906050027 76 345 0.0 3.0 0.00 0.01 0.00 90 1014.6
20260906045839 77 6 1.0 3.0 0.00 0.01 0.00 90 1014.7
20260906045334 77 349 1.0 4.0 0.00 0.01 0.00 90 1014.8
20260906044831 77 5 0.0 2.0 0.00 0.01 0.00 90 1014.8
20260906044554 76 153 0.0 1.0 0.00 0.01 0.00 90 1014.7
20260906044329 77 153 0.0 1.0 0.00 0.01 0.00 90 1014.7
20260906043827 77 153 0.0 0.0 0.00 0.01 0.00 90 1014.7
20260906043322 77 154 0.0 0.0 0.00 0.01 0.00 90 1014.6
20260906043032 76 153 0.0 0.0 0.00 0.01 0.00 90 1014.5
20260906042837 77 153 0.0 0.0 0.00 0.01 0.00 90 1014.5
20260906042353 77 153 0.0 0.0 0.00 0.01 0.00 90 1014.3
20260906041831 77 153 0.0 0.0 0.00 0.01 0.00 90 1014.5
20260906041551 76 153 0.0 0.0 0.00 0.01 0.00 90 1014.4
20260906041346 77 153 0.0 0.0 0.00 0.01 0.00 90 1014.6
20260906040822 77 154 0.0 0.0 0.00 0.01 0.00 90 1014.6
20260906040339 77 154 0.0 0.0 0.00 0.01 0.00 90 1014.6
20260906040023 76 154 0.0 0.0 0.00 0.01 0.01 90 1014.5
20260906035849 77 154 0.0 0.0 0.00 0.01 0.01 90 1014.6
20260906035346 77 164 0.0 0.0 0.00 0.01 0.01 90 1014.6
20260906034821 77 164 0.0 0.0 0.00 0.01 0.01 90 1014.5
20260906034508 76 164 0.0 0.0 0.00 0.01 0.01 89 1014.3
20260906034318 77 164 0.0 0.0 0.00 0.01 0.01 89 1014.3
20260906033834 77 164 0.0 1.0 0.00 0.01 0.01 90 1014.3
20260906033330 77 164 0.0 1.0 0.00 0.01 0.01 90 1014.2
20260906033050 77 164 0.0 1.0 0.00 0.01 0.01 90 1014.0
20260906032828 77 164 0.0 1.0 0.00 0.01 0.01 90 1014.1
20260906032326 77 160 0.0 1.0 0.00 0.01 0.01 90 1014.1
20260906031824 77 162 0.0 2.0 0.00 0.01 0.01 90 1014.1
20260906031541 77 181 0.0 2.0 0.00 0.01 0.01 90 1014.1
20260906031323 77 153 0.0 2.0 0.00 0.01 0.01 90 1014.1
20260906030821 77 150 0.0 2.0 0.00 0.01 0.01 90 1014.1
20260906030318 77 150 0.0 2.0 0.00 0.01 0.01 90 1014.3
20260906030020 77 150 0.0 3.0 0.00 0.01 0.01 90 1014.3
20260906025816 77 150 0.0 3.0 0.00 0.01 0.01 90 1014.5
20260906025314 77 150 1.0 3.0 0.00 0.01 0.01 90 1014.6
20260906024828 77 106 0.0 0.0 0.00 0.01 0.01 89 1014.6
20260906024526 77 107 0.0 0.0 0.00 0.01 0.01 89 1014.7
20260906024324 77 107 0.0 0.0 0.00 0.01 0.01 89 1014.9
20260906023820 77 356 0.0 0.0 0.00 0.01 0.01 89 1015.1
20260906023317 77 356 0.0 0.0 0.00 0.01 0.01 88 1015.2
20260906023052 77 356 0.0 0.0 0.00 0.01 0.01 88 1015.2
20260906022834 77 356 0.0 0.0 0.00 0.01 0.01 88 1015.4
20260906022351 77 356 0.0 0.0 0.00 0.01 0.01 88 1015.4
20260906021828 77 356 0.0 1.0 0.00 0.01 0.01 88 1015.5
20260906021517 77 356 0.0 1.0 0.00 0.01 0.01 88 1015.4
20260906021347 77 356 0.0 1.0 0.00 0.01 0.01 87 1015.5
20260906020823 77 359 0.0 3.0 0.00 0.01 0.01 88 1015.6
20260906020319 77 16 0.0 4.0 0.00 0.01 0.01 87 1015.7
20260906020041 77 356 0.0 4.0 0.00 0.01 0.01 87 1015.6
20260906015817 77 347 0.0 4.0 0.00 0.01 0.01 87 1015.7
20260906015334 77 353 1.0 3.0 0.00 0.01 0.01 87 1015.8
20260906014831 77 354 0.0 1.0 0.00 0.01 0.01 88 1015.8
20260906014538 76 354 0.0 2.0 0.00 0.01 0.01 88 1015.6
20260906014328 77 354 0.0 2.0 0.00 0.01 0.01 88 1015.9
20260906013826 77 299 0.0 1.0 0.00 0.01 0.01 88 1015.8
20260906013324 77 303 0.0 4.0 0.00 0.01 0.01 88 1015.7
20260906013049 76 295 0.0 4.0 0.00 0.01 0.01 88 1015.6
20260906012842 77 46 1.0 4.0 0.00 0.01 0.01 88 1015.5
20260906012319 77 5 0.0 3.0 0.00 0.01 0.01 88 1015.6
20260906011816 77 303 1.0 4.0 0.00 0.01 0.01 89 1015.7
20260906011505 76 21 0.0 4.0 0.00 0.01 0.01 89 1015.5
20260906011327 77 21 1.0 4.0 0.00 0.01 0.01 89 1015.5
20260906010826 77 12 0.0 1.0 0.00 0.01 0.01 89 1015.3
20260906010323 77 5 0.0 3.0 0.00 0.01 0.01 90 1015.2
20260906010058 76 5 0.0 3.0 0.00 0.01 0.01 90 1014.9
20260906010002 76 5 0.0 3.0 0.00 0.01 0.01 90 1015.0
20260906005840 77 5 0.0 3.0 0.00 0.01 0.01 90 1015.0
20260906005316 77 360 1.0 4.0 0.00 0.01 0.01 90 1015.0
20260906004834 77 359 2.0 4.0 0.00 0.01 0.01 91 1014.9
20260906004528 76 352 0.0 3.0 0.00 0.01 0.01 91 1014.7
20260906004333 77 352 0.0 3.0 0.00 0.01 0.01 91 1014.8
20260906003828 77 354 1.0 3.0 0.00 0.01 0.01 91 1014.8
20260906003325 77 348 1.0 3.0 0.00 0.01 0.01 91 1014.8
20260906003110 76 341 0.0 3.0 0.00 0.01 0.01 91 1014.7
20260906002824 77 2 1.0 3.0 0.00 0.01 0.01 91 1014.7
20260906002321 77 262 0.0 0.0 0.00 0.01 0.01 91 1014.5
20260906001818 77 262 0.0 0.0 0.00 0.01 0.01 91 1014.5
20260906001545 76 262 0.0 1.0 0.00 0.01 0.01 91 1014.4
20260906001338 77 262 0.0 1.0 0.00 0.01 0.01 91 1014.6
20260906000856 77 201 0.0 0.0 0.00 0.01 0.01 91 1014.6
20260906000348 77 200 0.0 0.0 0.00 0.01 0.01 91 1014.5
20260906000046 76 148 0.0 0.0 0.00 0.01 0.01 91 1014.2
20260905235823 77 148 0.0 1.0 0.00 0.01 0.01 91 1014.3
20260905235321 77 148 0.0 1.0 0.00 0.01 0.01 91 1014.4
20260905234819 77 136 0.0 1.0 0.00 0.01 0.01 91 1014.6
20260905234537 76 354 0.0 0.0 0.00 0.01 0.01 91 1014.4
20260905234317 77 354 0.0 0.0 0.00 0.01 0.01 91 1014.3
20260905233833 77 354 0.0 0.0 0.00 0.01 0.01 91 1014.4
20260905233328 77 354 0.0 0.0 0.00 0.01 0.01 91 1014.4
20260905233017 77 11 0.0 0.0 0.00 0.01 0.01 91 1014.4
20260905232826 77 27 0.0 0.0 0.00 0.01 0.01 91 1014.5
20260905232323 77 27 0.0 0.0 0.00 0.01 0.01 91 1014.4
20260905231821 77 27 0.0 0.0 0.00 0.01 0.01 91 1014.2
20260905231509 76 27 0.0 0.0 0.00 0.01 0.01 91 1014.1
20260905231319 77 27 0.0 0.0 0.00 0.01 0.01 91 1014.2
20260905230816 77 27 0.0 0.0 0.00 0.01 0.01 91 1014.2
20260905230334 77 27 0.0 0.0 0.00 0.01 0.01 90 1014.3
20260905230055 76 27 0.0 0.0 0.00 0.01 0.01 90 1014.3
20260905225831 77 27 0.0 0.0 0.00 0.03 0.01 90 1014.5
20260905225328 77 27 0.0 0.0 0.00 0.03 0.01 90 1014.6
20260905224825 77 27 0.0 1.0 0.00 0.03 0.01 90 1014.7
20260905224539 77 123 0.0 1.0 0.00 0.03 0.01 90 1014.7
20260905224342 77 117 0.0 1.0 0.00 0.03 0.01 90 1014.6
20260905223818 77 41 0.0 4.0 0.00 0.03 0.01 90 1014.5
20260905223336 78 147 0.0 4.0 0.00 0.03 0.01 89 1014.5
20260905223055 77 141 0.0 3.0 0.00 0.03 0.01 89 1014.5
20260905222855 78 169 0.0 3.0 0.00 0.03 0.01 89 1014.6
20260905222350 78 297 1.0 4.0 0.00 0.03 0.01 89 1014.6
20260905221827 79 209 1.0 4.0 0.00 0.03 0.01 89 1014.7
20260905221611 78 115 1.0 4.0 0.00 0.03 0.01 89 1014.6
20260905221325 79 300 1.0 4.0 0.00 0.03 0.01 89 1014.7
20260905220844 80 352 2.0 4.0 0.00 0.03 0.01 90 1015.0
20260905220319 81 302 0.0 0.0 0.00 0.03 0.01 90 1014.7
20260905220025 80 335 0.0 0.0 0.00 0.51 0.01 90 1014.5
20260905215816 81 117 0.0 0.0 0.00 0.51 0.01 90 1014.5
20260905215332 81 117 0.0 0.0 0.00 0.51 0.01 90 1014.5
20260905214827 81 117 0.0 0.0 0.00 0.51 0.01 89 1014.4
20260905214515 80 147 0.0 0.0 0.00 0.51 0.01 89 1014.2
20260905214325 81 289 0.0 0.0 0.00 0.51 0.01 89 1014.3
20260905213824 81 290 0.0 0.0 0.00 0.51 0.01 89 1014.2
20260905213321 81 290 0.0 0.0 0.00 0.51 0.01 88 1014.0
20260905213011 81 290 0.0 5.0 0.00 0.51 0.01 87 1013.6
20260905212838 82 290 0.0 5.0 0.00 0.51 0.01 87 1013.8
20260905212333 82 294 0.0 5.0 0.00 0.51 0.01 86 1013.7
20260905211850 83 274 1.0 4.0 0.00 0.51 0.01 85 1013.7
20260905211509 83 60 0.0 5.0 0.00 0.51 0.01 85 1013.7
20260905211345 83 20 1.0 5.0 0.00 0.51 0.01 84 1014.0
20260905210821 84 290 1.0 5.0 0.00 0.51 0.01 84 1013.9
20260905210318 84 192 0.0 1.0 0.00 0.51 0.01 84 1013.9
20260905210039 83 147 0.0 1.0 0.00 0.51 0.01 84 1013.7
20260905205815 84 147 0.0 1.0 0.00 1.45 0.01 83 1013.6
20260905205329 84 142 0.0 2.0 0.00 1.45 0.01 83 1013.7
20260905204825 84 130 0.0 5.0 0.00 1.45 0.01 83 1013.6
20260905204526 84 122 1.0 11.0 0.00 1.45 0.01 83 1013.5
20260905204321 84 137 2.0 11.0 0.00 1.45 0.01 83 1013.7
20260905203838 84 155 4.0 11.0 0.00 1.45 0.01 83 1013.2
20260905203355 85 131 3.0 8.0 0.00 1.45 0.01 83 1012.9
20260905203043 85 122 3.0 7.0 0.00 1.45 0.01 83 1012.7
20260905202852 85 114 3.0 11.0 0.00 1.45 0.01 83 1012.8
20260905202329 86 136 4.0 14.0 0.00 1.45 0.01 82 1013.0
20260905201826 87 143 9.0 14.0 0.00 1.45 0.01 81 1013.0
20260905201506 87 102 7.0 13.0 0.00 1.45 0.01 81 1013.0
20260905201323 88 182 8.0 13.0 0.00 1.45 0.01 81 1013.1